Time,TemperatureF,DewpointF,PressureIn,WindDirection,WindDirectionDegrees,WindSpeedMPH,WindSpeedGustMPH,Humidity,HourlyPrecipIn,Conditions,Clouds,dailyrainin,SoftwareType,DateUTC
2013-02-16 00:01:00,64.0,2.0,-100.00,NNE,33,6.0,19.0,8,-99.99,,,-99.99,,2013-02-16 08:01:00,
2013-02-16 00:11:00,63.0,3.0,-100.00,NE,42,7.0,18.0,9,-99.99,,,-99.99,,2013-02-16 08:11:00,
2013-02-16 00:21:00,64.0,4.0,-100.00,ENE,57,9.0,16.0,9,-99.99,,,-99.99,,2013-02-16 08:21:00,
2013-02-16 00:31:00,64.0,4.0,-100.00,ENE,69,11.0,27.0,9,-99.99,,,-99.99,,2013-02-16 08:31:00,
2013-02-16 00:41:00,64.0,2.0,-100.00,East,85,7.0,15.0,8,-99.99,,,-99.99,,2013-02-16 08:41:00,
2013-02-16 00:52:00,64.0,2.0,-100.00,ESE,110,4.0,15.0,8,-99.99,,,-99.99,,2013-02-16 08:52:00,
2013-02-16 01:01:00,64.0,2.0,-100.00,ENE,62,8.0,27.0,8,-99.99,,,-99.99,,2013-02-16 09:01:00,
2013-02-16 01:11:00,64.0,4.0,-100.00,ESE,108,7.0,15.0,9,-99.99,,,-99.99,,2013-02-16 09:11:00,
2013-02-16 01:21:00,64.0,4.0,-100.00,NNW,346,7.0,32.0,9,-99.99,,,-99.99,,2013-02-16 09:21:00,
2013-02-16 01:31:00,64.0,4.0,-100.00,NNW,346,7.0,32.0,9,-99.99,,,-99.99,,2013-02-16 09:31:00,
2013-02-16 01:42:00,64.0,4.0,-100.00,ENE,59,8.0,23.0,9,-99.99,,,-99.99,,2013-02-16 09:42:00,
2013-02-16 01:51:00,64.0,4.0,-100.00,East,93,6.0,18.0,9,-99.99,,,-99.99,,2013-02-16 09:51:00,
2013-02-16 02:01:00,63.0,3.0,-100.00,East,80,7.0,15.0,9,-99.99,,,-99.99,,2013-02-16 10:01:00,
2013-02-16 02:11:00,62.0,5.0,-100.00,NNW,340,6.0,15.0,10,-99.99,,,-99.99,,2013-02-16 10:11:00,
2013-02-16 02:21:00,63.0,6.0,-100.00,NW,322,6.0,14.0,10,-99.99,,,-99.99,,2013-02-16 10:21:00,
2013-02-16 02:31:00,63.0,3.0,-100.00,SSW,208,5.0,9.0,9,-99.99,,,-99.99,,2013-02-16 10:31:00,
2013-02-16 02:41:00,63.0,3.0,-100.00,WNW,288,6.0,12.0,9,-99.99,,,-99.99,,2013-02-16 10:41:00,
2013-02-16 02:51:00,63.0,6.0,-100.00,West,270,8.0,12.0,10,-99.99,,,-99.99,,2013-02-16 10:51:00,
2013-02-16 03:01:00,62.0,5.0,-100.00,SW,234,5.0,9.0,10,-99.99,,,-99.99,,2013-02-16 11:01:00,
2013-02-16 03:11:00,61.0,6.0,-100.00,SW,226,3.0,8.0,11,-99.99,,,-99.99,,2013-02-16 11:11:00,
2013-02-16 03:22:00,61.0,4.0,-100.00,WSW,237,4.0,8.0,10,-99.99,,,-99.99,,2013-02-16 11:22:00,
2013-02-16 03:31:00,61.0,6.0,-100.00,West,275,5.0,10.0,11,-99.99,,,-99.99,,2013-02-16 11:31:00,
2013-02-16 03:42:00,62.0,5.0,-100.00,WSW,252,6.0,14.0,10,-99.99,,,-99.99,,2013-02-16 11:42:00,
2013-02-16 03:52:00,62.0,5.0,-100.00,WSW,246,5.0,10.0,10,-99.99,,,-99.99,,2013-02-16 11:52:00,
2013-02-16 04:01:00,62.0,5.0,-100.00,West,262,4.0,7.0,10,-99.99,,,-99.99,,2013-02-16 12:01:00,
2013-02-16 04:12:00,62.0,7.0,-100.00,SE,144,3.0,9.0,11,-99.99,,,-99.99,,2013-02-16 12:12:00,
2013-02-16 04:22:00,62.0,7.0,-100.00,WSW,249,4.0,11.0,11,-99.99,,,-99.99,,2013-02-16 12:22:00,
2013-02-16 04:32:00,61.0,6.0,-100.00,WNW,285,4.0,10.0,11,-99.99,,,-99.99,,2013-02-16 12:32:00,
2013-02-16 04:42:00,62.0,7.0,-100.00,ENE,59,8.0,20.0,11,-99.99,,,-99.99,,2013-02-16 12:42:00,
2013-02-16 04:50:00,61.0,8.0,-100.00,NE,51,19.0,31.0,12,-99.99,,,-99.99,,2013-02-16 12:50:00,
2013-02-16 04:52:00,62.0,9.0,-100.00,NE,55,15.0,24.0,12,-99.99,,,-99.99,,2013-02-16 12:52:00,
2013-02-16 05:01:00,61.0,8.0,-100.00,NE,51,17.0,28.0,12,-99.99,,,-99.99,,2013-02-16 13:01:00,
2013-02-16 05:11:00,61.0,8.0,-100.00,NE,51,20.0,32.0,12,-99.99,,,-99.99,,2013-02-16 13:11:00,
2013-02-16 05:21:00,61.0,8.0,-100.00,NE,51,19.0,31.0,12,-99.99,,,-99.99,,2013-02-16 13:21:00,
2013-02-16 05:31:00,61.0,8.0,-100.00,NE,51,19.0,31.0,12,-99.99,,,-99.99,,2013-02-16 13:31:00,
2013-02-16 05:41:00,61.0,8.0,-100.00,NE,51,19.0,31.0,12,-99.99,,,-99.99,,2013-02-16 13:41:00,
2013-02-16 06:01:00,61.0,8.0,-100.00,NE,47,21.0,31.0,12,-99.99,,,-99.99,,2013-02-16 14:01:00,
2013-02-16 06:11:00,60.0,7.0,-100.00,NE,49,19.0,31.0,12,-99.99,,,-99.99,,2013-02-16 14:11:00,
2013-02-16 06:21:00,61.0,8.0,-100.00,NE,51,22.0,35.0,12,-99.99,,,-99.99,,2013-02-16 14:21:00,
2013-02-16 06:32:00,61.0,8.0,-100.00,NE,53,24.0,35.0,12,-99.99,,,-99.99,,2013-02-16 14:32:00,
2013-02-16 06:41:00,61.0,8.0,-100.00,NE,55,25.0,40.0,12,-99.99,,,-99.99,,2013-02-16 14:41:00,
2013-02-16 06:52:00,61.0,8.0,-100.00,NE,56,25.0,37.0,12,-99.99,,,-99.99,,2013-02-16 14:52:00,
2013-02-16 07:01:00,61.0,8.0,-100.00,NE,53,26.0,36.0,12,-99.99,,,-99.99,,2013-02-16 15:01:00,
2013-02-16 07:11:00,60.0,9.0,-100.00,NE,51,24.0,32.0,13,-99.99,,,-99.99,,2013-02-16 15:11:00,
2013-02-16 07:21:00,60.0,9.0,-100.00,NE,53,24.0,38.0,13,-99.99,,,-99.99,,2013-02-16 15:21:00,
2013-02-16 07:31:00,61.0,10.0,-100.00,NE,52,24.0,35.0,13,-99.99,,,-99.99,,2013-02-16 15:31:00,
2013-02-16 07:41:00,61.0,10.0,-100.00,NE,50,24.0,33.0,13,-99.99,,,-99.99,,2013-02-16 15:41:00,
2013-02-16 07:51:00,61.0,10.0,-100.00,NE,51,23.0,35.0,13,-99.99,,,-99.99,,2013-02-16 15:51:00,
2013-02-16 08:01:00,62.0,9.0,-100.00,NE,52,25.0,35.0,12,-99.99,,,-99.99,,2013-02-16 16:01:00,
2013-02-16 08:11:00,62.0,9.0,-100.00,NE,51,25.0,41.0,12,-99.99,,,-99.99,,2013-02-16 16:11:00,
2013-02-16 08:21:00,62.0,11.0,-100.00,NE,51,25.0,38.0,13,-99.99,,,-99.99,,2013-02-16 16:21:00,
2013-02-16 08:32:00,63.0,10.0,-100.00,NE,53,25.0,35.0,12,-99.99,,,-99.99,,2013-02-16 16:32:00,
2013-02-16 08:41:00,63.0,10.0,-100.00,NE,54,25.0,37.0,12,-99.99,,,-99.99,,2013-02-16 16:41:00,
2013-02-16 08:51:00,63.0,10.0,-100.00,NE,55,26.0,39.0,12,-99.99,,,-99.99,,2013-02-16 16:51:00,
2013-02-16 09:01:00,64.0,10.0,-100.00,NE,56,26.0,38.0,12,-99.99,,,-99.99,,2013-02-16 17:01:00,
2013-02-16 09:11:00,64.0,10.0,-100.00,ENE,57,25.0,36.0,12,-99.99,,,-99.99,,2013-02-16 17:11:00,
2013-02-16 09:21:00,65.0,11.0,-100.00,NE,55,23.0,35.0,12,-99.99,,,-99.99,,2013-02-16 17:21:00,
2013-02-16 09:31:00,65.0,9.0,-100.00,NE,56,25.0,34.0,11,-99.99,,,-99.99,,2013-02-16 17:31:00,
2013-02-16 09:41:00,66.0,12.0,-100.00,NE,55,23.0,34.0,12,-99.99,,,-99.99,,2013-02-16 17:41:00,
2013-02-16 09:52:00,66.0,10.0,-100.00,NE,56,23.0,33.0,11,-99.99,,,-99.99,,2013-02-16 17:52:00,
2013-02-16 10:01:00,67.0,11.0,-100.00,NE,56,22.0,34.0,11,-99.99,,,-99.99,,2013-02-16 18:01:00,
2013-02-16 10:11:00,67.0,11.0,-100.00,NE,55,23.0,32.0,11,-99.99,,,-99.99,,2013-02-16 18:11:00,
2013-02-16 10:21:00,67.0,11.0,-100.00,ENE,60,23.0,32.0,11,-99.99,,,-99.99,,2013-02-16 18:21:00,
2013-02-16 10:32:00,68.0,12.0,-100.00,ENE,59,21.0,31.0,11,-99.99,,,-99.99,,2013-02-16 18:32:00,
2013-02-16 10:41:00,69.0,12.0,-100.00,ENE,65,17.0,25.0,11,-99.99,,,-99.99,,2013-02-16 18:41:00,
2013-02-16 10:51:00,69.0,12.0,-100.00,ENE,63,17.0,25.0,11,-99.99,,,-99.99,,2013-02-16 18:51:00,
2013-02-16 11:02:00,68.0,12.0,-100.00,ENE,68,13.0,24.0,11,-99.99,,,-99.99,,2013-02-16 19:02:00,
2013-02-16 11:11:00,69.0,12.0,-100.00,ENE,66,14.0,24.0,11,-99.99,,,-99.99,,2013-02-16 19:11:00,
2013-02-16 11:21:00,69.0,12.0,-100.00,ENE,65,15.0,23.0,11,-99.99,,,-99.99,,2013-02-16 19:21:00,
2013-02-16 11:31:00,70.0,13.0,-100.00,ENE,64,14.0,22.0,11,-99.99,,,-99.99,,2013-02-16 19:31:00,
2013-02-16 11:42:00,70.0,13.0,-100.00,ENE,64,14.0,23.0,11,-99.99,,,-99.99,,2013-02-16 19:42:00,
2013-02-16 11:52:00,70.0,13.0,-100.00,NE,55,17.0,25.0,11,-99.99,,,-99.99,,2013-02-16 19:52:00,
2013-02-16 12:01:00,71.0,12.0,-100.00,ENE,67,14.0,21.0,10,-99.99,,,-99.99,,2013-02-16 20:01:00,
2013-02-16 12:11:00,71.0,12.0,-100.00,ENE,62,14.0,22.0,10,-99.99,,,-99.99,,2013-02-16 20:11:00,
2013-02-16 12:21:00,71.0,12.0,-100.00,ENE,59,15.0,22.0,10,-99.99,,,-99.99,,2013-02-16 20:21:00,
2013-02-16 12:32:00,71.0,12.0,-100.00,NE,50,15.0,24.0,10,-99.99,,,-99.99,,2013-02-16 20:32:00,
2013-02-16 12:42:00,71.0,12.0,-100.00,NE,54,15.0,24.0,10,-99.99,,,-99.99,,2013-02-16 20:42:00,
2013-02-16 12:52:00,71.0,12.0,-100.00,NE,44,15.0,22.0,10,-99.99,,,-99.99,,2013-02-16 20:52:00,
2013-02-16 13:02:00,71.0,12.0,-100.00,NE,44,16.0,22.0,10,-99.99,,,-99.99,,2013-02-16 21:02:00,
2013-02-16 13:11:00,71.0,12.0,-100.00,NE,42,15.0,21.0,10,-99.99,,,-99.99,,2013-02-16 21:11:00,
2013-02-16 13:21:00,70.0,11.0,-100.00,NE,45,14.0,19.0,10,-99.99,,,-99.99,,2013-02-16 21:21:00,
2013-02-16 13:31:00,71.0,9.0,-100.00,NE,45,14.0,19.0,9,-99.99,,,-99.99,,2013-02-16 21:31:00,
2013-02-16 13:41:00,72.0,12.0,-100.00,NE,44,11.0,17.0,10,-99.99,,,-99.99,,2013-02-16 21:41:00,
2013-02-16 13:52:00,72.0,10.0,-100.00,NE,45,11.0,17.0,9,-99.99,,,-99.99,,2013-02-16 21:52:00,
2013-02-16 14:01:00,72.0,10.0,-100.00,NE,40,11.0,18.0,9,-99.99,,,-99.99,,2013-02-16 22:01:00,
2013-02-16 14:11:00,73.0,8.0,-100.00,NNE,33,11.0,16.0,8,-99.99,,,-99.99,,2013-02-16 22:11:00,
2013-02-16 14:21:00,73.0,11.0,-100.00,NE,37,9.0,14.0,9,-99.99,,,-99.99,,2013-02-16 22:21:00,
2013-02-16 14:31:00,73.0,8.0,-100.00,NE,52,9.0,14.0,8,-99.99,,,-99.99,,2013-02-16 22:31:00,
2013-02-16 14:42:00,73.0,8.0,-100.00,NE,41,9.0,15.0,8,-99.99,,,-99.99,,2013-02-16 22:42:00,
2013-02-16 14:51:00,73.0,8.0,-100.00,NE,44,9.0,14.0,8,-99.99,,,-99.99,,2013-02-16 22:51:00,
2013-02-16 15:02:00,73.0,8.0,-100.00,NE,39,7.0,12.0,8,-99.99,,,-99.99,,2013-02-16 23:02:00,
2013-02-16 15:11:00,74.0,3.0,-100.00,ENE,77,6.0,11.0,6,-99.99,,,-99.99,,2013-02-16 23:11:00,
2013-02-16 15:21:00,74.0,9.0,-100.00,NE,56,5.0,11.0,8,-99.99,,,-99.99,,2013-02-16 23:21:00,
2013-02-16 15:31:00,74.0,6.0,-100.00,NE,45,4.0,7.0,7,-99.99,,,-99.99,,2013-02-16 23:31:00,
2013-02-16 15:42:00,75.0,7.0,-100.00,West,266,3.0,8.0,7,-99.99,,,-99.99,,2013-02-16 23:42:00,
2013-02-16 15:52:00,74.0,14.0,-100.00,West,259,7.0,16.0,10,-99.99,,,-99.99,,2013-02-16 23:52:00,
2013-02-16 16:01:00,72.0,18.0,-100.00,West,273,10.0,14.0,13,-99.99,,,-99.99,,2013-02-17 00:01:00,
2013-02-16 16:11:00,71.0,18.0,-100.00,West,274,10.0,15.0,13,-99.99,,,-99.99,,2013-02-17 00:11:00,
2013-02-16 16:21:00,71.0,18.0,-100.00,West,270,9.0,11.0,13,-99.99,,,-99.99,,2013-02-17 00:21:00,
2013-02-16 16:31:00,70.0,17.0,-100.00,WSW,246,10.0,15.0,13,-99.99,,,-99.99,,2013-02-17 00:31:00,
2013-02-16 16:41:00,70.0,17.0,-100.00,WSW,254,9.0,12.0,13,-99.99,,,-99.99,,2013-02-17 00:41:00,
2013-02-16 16:51:00,69.0,16.0,-100.00,WSW,243,11.0,17.0,13,-99.99,,,-99.99,,2013-02-17 00:51:00,
2013-02-16 17:01:00,69.0,14.0,-100.00,SW,232,11.0,15.0,12,-99.99,,,-99.99,,2013-02-17 01:01:00,
2013-02-16 17:11:00,68.0,15.0,-100.00,WSW,238,11.0,14.0,13,-99.99,,,-99.99,,2013-02-17 01:11:00,
2013-02-16 17:21:00,68.0,15.0,-100.00,WSW,237,9.0,13.0,13,-99.99,,,-99.99,,2013-02-17 01:21:00,
2013-02-16 17:31:00,67.0,15.0,-100.00,WSW,244,9.0,13.0,13,-99.99,,,-99.99,,2013-02-17 01:31:00,
2013-02-16 17:41:00,67.0,15.0,-100.00,WSW,244,9.0,13.0,13,-99.99,,,-99.99,,2013-02-17 01:41:00,
2013-02-16 17:52:00,65.0,19.0,-100.00,WSW,256,5.0,7.0,17,-99.99,,,-99.99,,2013-02-17 01:52:00,
2013-02-16 18:01:00,64.0,18.0,-100.00,West,273,4.0,7.0,17,-99.99,,,-99.99,,2013-02-17 02:01:00,
2013-02-16 18:11:00,63.0,20.0,-100.00,NE,38,1.0,4.0,19,-99.99,,,-99.99,,2013-02-17 02:11:00,
2013-02-16 18:21:00,61.0,18.0,-100.00,WSW,251,0.0,2.0,19,-99.99,,,-99.99,,2013-02-17 02:21:00,
2013-02-16 18:31:00,61.0,14.0,-100.00,NW,321,2.0,4.0,16,-99.99,,,-99.99,,2013-02-17 02:31:00,
2013-02-16 18:41:00,60.0,19.0,-100.00,North,360,2.0,4.0,20,-99.99,,,-99.99,,2013-02-17 02:41:00,
2013-02-16 18:52:00,58.0,20.0,-100.00,NNE,13,4.0,6.0,23,-99.99,,,-99.99,,2013-02-17 02:52:00,
2013-02-16 19:01:00,58.0,20.0,-100.00,NNE,13,4.0,6.0,23,-99.99,,,-99.99,,2013-02-17 03:01:00,
2013-02-16 19:11:00,54.0,23.0,-100.00,NE,51,3.0,5.0,30,-99.99,,,-99.99,,2013-02-17 03:11:00,
2013-02-16 19:21:00,52.0,23.0,-100.00,NNE,22,1.0,3.0,32,-99.99,,,-99.99,,2013-02-17 03:21:00,
2013-02-16 19:31:00,52.0,22.0,-100.00,NE,45,3.0,5.0,31,-99.99,,,-99.99,,2013-02-17 03:31:00,
2013-02-16 19:42:00,51.0,22.0,-100.00,NNE,30,5.0,5.0,32,-99.99,,,-99.99,,2013-02-17 03:42:00,
2013-02-16 19:51:00,52.0,20.0,-100.00,NNE,33,4.0,5.0,28,-99.99,,,-99.99,,2013-02-17 03:51:00,
2013-02-16 20:01:00,53.0,21.0,-100.00,NE,39,3.0,4.0,28,-99.99,,,-99.99,,2013-02-17 04:01:00,
2013-02-16 20:11:00,53.0,20.0,-100.00,NNE,12,3.0,4.0,27,-99.99,,,-99.99,,2013-02-17 04:11:00,
2013-02-16 20:21:00,53.0,19.0,-100.00,NNE,19,3.0,4.0,26,-99.99,,,-99.99,,2013-02-17 04:21:00,
2013-02-16 20:31:00,53.0,20.0,-100.00,NE,34,2.0,3.0,27,-99.99,,,-99.99,,2013-02-17 04:31:00,
2013-02-16 20:41:00,51.0,21.0,-100.00,NNE,21,2.0,3.0,30,-99.99,,,-99.99,,2013-02-17 04:41:00,
2013-02-16 20:51:00,51.0,21.0,-100.00,NNE,22,2.0,2.0,31,-99.99,,,-99.99,,2013-02-17 04:51:00,
2013-02-16 21:01:00,51.0,21.0,-100.00,North,10,2.0,3.0,31,-99.99,,,-99.99,,2013-02-17 05:01:00,
2013-02-16 21:11:00,50.0,21.0,-100.00,NNE,28,2.0,3.0,31,-99.99,,,-99.99,,2013-02-17 05:11:00,
2013-02-16 21:22:00,49.0,21.0,-100.00,NNE,20,2.0,3.0,33,-99.99,,,-99.99,,2013-02-17 05:22:00,
2013-02-16 21:32:00,50.0,21.0,-100.00,NNE,33,1.0,3.0,32,-99.99,,,-99.99,,2013-02-17 05:32:00,
2013-02-16 21:42:00,47.0,23.0,-100.00,NNE,24,2.0,3.0,38,-99.99,,,-99.99,,2013-02-17 05:42:00,
2013-02-16 21:52:00,45.0,23.0,-100.00,NE,35,3.0,4.0,42,-99.99,,,-99.99,,2013-02-17 05:52:00,
2013-02-16 22:01:00,46.0,22.0,-100.00,NNE,26,2.0,3.0,38,-99.99,,,-99.99,,2013-02-17 06:01:00,
2013-02-16 22:11:00,48.0,20.0,-100.00,NNE,20,2.0,3.0,33,-99.99,,,-99.99,,2013-02-17 06:11:00,
2013-02-16 22:21:00,48.0,21.0,-100.00,NNE,30,2.0,3.0,34,-99.99,,,-99.99,,2013-02-17 06:21:00,
2013-02-16 22:31:00,45.0,22.0,-100.00,North,9,1.0,2.0,40,-99.99,,,-99.99,,2013-02-17 06:31:00,
2013-02-16 22:41:00,46.0,22.0,-100.00,North,8,1.0,2.0,39,-99.99,,,-99.99,,2013-02-17 06:41:00,
2013-02-16 22:51:00,47.0,21.0,-100.00,North,349,1.0,2.0,35,-99.99,,,-99.99,,2013-02-17 06:51:00,
2013-02-16 23:01:00,48.0,21.0,-100.00,North,359,1.0,2.0,34,-99.99,,,-99.99,,2013-02-17 07:01:00,
2013-02-16 23:11:00,46.0,21.0,-100.00,NNW,348,2.0,2.0,37,-99.99,,,-99.99,,2013-02-17 07:11:00,
2013-02-16 23:21:00,46.0,22.0,-100.00,North,6,1.0,3.0,39,-99.99,,,-99.99,,2013-02-17 07:21:00,
2013-02-16 23:31:00,42.0,23.0,-100.00,NNE,32,3.0,5.0,47,-99.99,,,-99.99,,2013-02-17 07:31:00,
2013-02-16 23:41:00,45.0,22.0,-100.00,NNE,17,1.0,3.0,39,-99.99,,,-99.99,,2013-02-17 07:41:00,
2013-02-16 23:51:00,43.0,23.0,-100.00,NE,36,1.0,2.0,44,-99.99,,,-99.99,,2013-02-17 07:51:00,